Regional Weather Roundup
Issued by NWS

Home | Current Version | Previous Version | Text Only | Print | Product List | Glossary Off
Versions: 1 2 3 4 5 6 7 8 9 10 11 12 13 14 15 16 17 18 19 20 21 22 23 24 25 26 27 28 29 30 31 32 33 34 35 36 37 38 39 40 41 42 43 44 45 46 47 48 49 50

000
ASUS43 KOAX 230210
RWRNE

WEATHER ROUNDUP FOR NEBRASKA
NATIONAL WEATHER SERVICE OMAHA NE
800 PM CST SUN JAN 22 2017

NOTES: SATELLITE DATA IS BEING USED TO AUGMENT CLOUD COVER ABOVE
       12000 FEET.
       "FAIR" INDICATES FEW OR NO CLOUDS BELOW 12,000 FEET WITH NO
       SIGNIFICANT WEATHER AND/OR OBSTRUCTIONS TO VISIBILITY.

  * THESE STATIONS DO NOT REPORT WEATHER SUCH AS RAIN...SNOW OR FOG.

NEZ001>004-019>022-054>056-230300-
NEBRASKA PANHANDLE

CITY           SKY/WX    TMP DP  RH WIND       PRES   REMARKS
SCOTTSBLUFF    CLEAR     29  20  69 N7        29.88S WCI  22
ALLIANCE       CLEAR     26  19  74 W7        29.87R WCI  18
CHADRON        CLEAR     27  23  85 SW5       29.87R WCI  22
KIMBALL        CLEAR     26  21  82 W3        29.90R
SIDNEY         CLEAR     27  18  69 W7        29.90S WCI  19
$$

NEZ057>060-069>072-079>082-230300-
SOUTHWEST NEBRASKA

CITY           SKY/WX    TMP DP  RH WIND       PRES   REMARKS
NORTH PLATTE   CLEAR     29  23  78 CALM      29.89R
IMPERIAL       CLEAR     35  25  66 W7        29.91R WCI  29
LEXINGTON      CLEAR     30  25  83 NW5       29.89R WCI  25
MCCOOK         CLEAR     34  26  72 W9        29.90R WCI  27
OGALLALA       CLEAR     31  24  76 NW3       29.90R
$$

NEZ005>010-023>029-035>040-094-230300-
NORTH CENTRAL NEBRASKA

CITY           SKY/WX    TMP DP  RH WIND       PRES   REMARKS
VALENTINE      CLEAR     25  21  85 CALM      29.88R
AINSWORTH      CLEAR     28  24  84 W6        29.88S WCI  22
BROKEN BOW     CLEAR     33  26  75 N8        29.87S WCI  26
O`NEILL        CLEAR     30  26  87 N6        29.88S WCI  24
ORD            CLEAR     31  25  78 W3        29.87S
THEDFORD       CLEAR     33  25  71 CALM      29.89S
$$

NEZ041-046>049-061>064-073>077-083>087-230300-
SOUTH CENTRAL NEBRASKA

CITY           SKY/WX    TMP DP  RH WIND       PRES   REMARKS
GRAND ISLAND   CLEAR     30  28  92 W7        29.88S WCI  23
AURORA         CLEAR     33  30  89 W5        29.87S WCI  28
HASTINGS       CLEAR     34  30  85 CALM      29.89R
HEBRON         CLEAR     31  29  91 CALM      29.90R
HOLDREGE       CLEAR     35  28  78 W3        29.87F
KEARNEY *      CLEAR     37  27  65 W5        29.88S WCI  34
YORK           CLEAR     34  32  93 CALM      29.88S
$$

NEZ011>018-030>034-042>045-230300-
NORTHEAST NEBRASKA

CITY           SKY/WX    TMP DP  RH WIND       PRES   REMARKS
NORFOLK        CLEAR     32  26  78 NW9       29.86S WCI  24
ALBION         CLEAR     31  22  68 NW3       29.87S
BLAIR          CLEAR     32  31  94 NW5       29.86S WCI  28
FREMONT        CLEAR     31  31 100 CALM      29.88S FOG
TEKAMAH        CLEAR     31  29  92 N3        29.88S FOG
WAYNE          CLEAR     30  29  95 N6        29.87R WCI  24
$$

NEZ050>053-065>068-078-088>093-230300-
SOUTHEAST NEBRASKA

CITY           SKY/WX    TMP DP  RH WIND       PRES   REMARKS
LINCOLN        CLEAR     30  28  92 CALM      29.90R
OMAHA EPPLEY   CLEAR     31  27  85 NW7       29.88R WCI  24
BEATRICE       CLEAR     29  29  98 CALM      29.89R
FALLS CITY     CLEAR     33  31  92 NW8       29.87R WCI  26
NEBRASKA CITY  CLEAR     33  32  98 NW8       29.87S WCI  25
PLATTSMOUTH    CLEAR     32  30  90 NW7       29.87S WCI  26
$$

NEZ044-045-051>053-067-230300-
OMAHA AREA

CITY           SKY/WX    TMP DP  RH WIND       PRES   REMARKS
OMAHA EPPLEY   CLEAR     31  27  85 NW7       29.88R WCI  24
BLAIR          CLEAR     32  31  94 NW5       29.86S WCI  28
FREMONT        CLEAR     31  31 100 CALM      29.88S FOG
MILLARD        CLEAR     33  32  96 CALM      29.88R FOG
OFFUTT AFB     CLEAR     30  30 100 NW6       29.87R WCI  24
PLATTSMOUTH    CLEAR     32  30  90 NW7       29.87S WCI  26
WAHOO          FAIR      31  30  94 W3        29.88S
$$




USA.gov is the U.S. government's official web portal to all federal, state and local government web resources and services.